Location: Alsip
(41.6689°N, 87.7387°W)
Time: 14:53:58
(UTC+00:00)

Helios 1B rocket - Pass Details

Date: 14 July 2020
Orbit: 574 x 584 km, 98.1° (Epoch: 12 August)

Event Time Altitude Azimuth Distance (km) Brightness Sun altitude
Rises 06:52:57 0° 6° (N) 2,805 7.3 -25.4°
Reaches altitude 10° 06:55:11 10° 359° (N) 1,900 6.0 -25.3°
Enters shadow 06:58:40 41° 306° (NW) 846 3.3 -25.1°
